クリステンセン彗星

286P/Christensen (2014)

English version
Home page
Updated on December 24, 2014

---------------------------------------------------------------------

・ プロフィール

符号 286P/2013 K3
検出日 2013年5月19日
検出光度 19.5等
検出者 佐藤英貴(東京)

・ 軌道要素

Epoch 2014 Jan. 23.0 TT = JDT 2456680.5
T 2014 Jan. 6.13054 TT                                  MPC
q   2.3760327            (2000.0)            P               Q
n   0.11773371     Peri.   24.86445     +0.60896334     +0.74057479
a   4.1228939      Node   283.95288     -0.76789120     +0.46067072
e   0.4236978      Incl.   17.02189     -0.19876307     +0.48921516
P   8.37
From 124 observations 2005 June 3-2014 Oct. 28, mean residual 0".5.

・ 光度変化

        m1 = 13.5 + 5 logΔ + 10.0 log r

---------------------------------------------------------------------

軌道要素はM.P.E.C. 2014-V27に掲載されたものです。
光度グラフはComet for Windowsで作成したものです。

---------------------------------------------------------------------

Copyright(C) Seiichi Yoshida (comet@aerith.net). All rights reserved.